{"data":{"norad_id":36032,"intl_designator":"2009-058A","name":"NSS-12","alt_names":[],"object_type":"PAYLOAD","status":"ACTIVE","operator":null,"country":"SES","launch_date":"2009-10-29","launch_site_code":"FRGUI","launch_vehicle":null,"mission":null,"orbit_class":"UNKNOWN","rcs_meters":7.9433,"size_class":null,"mass_kg":null,"dimensions":null,"purposes":["comms"],"wikipedia_slug":null,"has_3d_model":false,"image_url":null,"decayed_at":null,"tle_current":{"epoch":"2026-09-20T01:47:45.547008Z","epoch_age_seconds":54924,"freshness":"FRESH","line1":"1 36032U 09058A   26263.07483272  .00000067  00000+0  00000+0 0  9999","line2":"2 36032   0.0286  79.2988 0003207  57.9382 305.6869  1.00272703 61861","mean_motion":1.00272703,"eccentricity":0.0003207,"inclination_deg":0.0286,"raan_deg":79.2988,"arg_perigee_deg":57.9382,"mean_anomaly_deg":305.6869,"bstar":0,"rev_number":6186,"period_min":1436.0837565135,"perigee_km":35772.815467421,"apogee_km":35799.859761439,"semimajor_km":42164.47461443,"source":"CELESTRAK","updated_at":"2026-09-20T09:00:35.638798Z"}}}